Wind_Speed
19 20 22 22 24 25 25 24 23 22 21 20 21 22 24 25 24 23 23 23 22 20 20 22 23 23 23 21 26 32 30 28 29 27 23 24 28 30 30 28 26 25 28 31 32 32 34 32 28 26 25 25 24 21 19 18 17 16 17 18 18 16 18 20 22 21 19 18 18 19 21 20 18 16 16 17 18 19 19 18 16 15 14 12 11
18 19 20 21 23 25 24 22 21 21 20 19 20 22 23 23 23 22 22 22 21 21 21 22 23 23 22 21 27 34 32 30 30 27 24 23 28 30 30 27 23 23 26 28 31 32 32 33 31 27 26 25 24 22 20 18 17 17 17 18 18 18 19 20 20 20 20 20 19 18 19 20 19 18 18 19 20 19 20 19 17 16 15 12 11
18 18 18 19 21 23 23 22 20 19 19 18 19 20 21 21 21 21 21 21 21 21 22 22 23 22 20 20 27 34 33 32 30 27 24 23 28 32 31 27 24 24 26 26 28 31 32 32 32 29 27 26 24 24 22 21 19 18 18 18 20 22 22 20 19 19 19 20 20 17 17 18 19 19 20 21 21 21 21 19 18 17 16 13 12
17 17 17 17 19 20 21 21 20 19 18 18 18 18 19 19 19 19 20 21 21 22 22 22 23 22 20 20 25 32 33 31 29 27 25 23 26 32 33 29 27 27 28 28 27 29 31 31 32 31 28 27 25 24 23 21 19 18 19 19 21 23 22 21 19 18 19 20 20 18 17 18 19 20 21 22 21 22 21 20 19 18 17 15 13
16 16 16 16 16 17 18 19 19 18 18 18 18 17 17 17 17 18 19 20 20 21 21 21 23 22 21 19 23 30 32 30 27 27 27 24 24 31 35 31 29 28 28 29 28 28 30 30 31 31 29 27 26 24 23 21 19 19 20 20 22 22 21 20 19 19 19 19 19 18 17 18 21 22 22 22 21 22 22 20 20 20 18 16 14
16 15 15 15 15 15 15 16 16 17 16 16 17 17 16 15 15 15 17 18 19 20 20 20 21 22 21 19 20 26 32 29 26 27 27 24 23 28 34 33 29 29 28 29 29 28 29 29 29 31 29 28 27 26 25 23 21 21 22 22 21 21 20 19 18 19 19 19 19 18 18 19 21 21 21 21 21 23 23 22 20 21 20 18 16
15 14 14 13 13 14 14 14 14 15 15 14 15 15 15 14 13 13 14 15 17 18 20 19 20 21 21 20 19 22 28 30 27 25 26 25 23 23 30 33 30 29 28 27 29 29 29 29 28 29 29 29 28 27 26 25 24 23 23 22 20 19 19 18 18 18 18 19 19 18 19 20 21 20 20 20 22 24 24 23 21 22 21 20 18
15 14 13 12 12 12 13 13 13 13 13 13 12 13 14 14 13 12 13 14 15 17 19 19 19 20 20 20 20 20 23 28 29 26 25 25 24 22 24 31 32 29 28 27 28 28 29 30 29 28 28 29 29 27 26 25 25 23 22 22 19 18 19 18 17 17 18 20 19 19 20 20 20 19 19 20 22 24 25 24 22 22 23 22 21
15 14 13 12 11 11 11 12 12 12 12 11 11 11 12 12 12 12 12 12 14 15 17 18 18 19 20 21 21 21 21 24 28 29 27 25 26 23 20 28 33 29 27 27 28 28 28 29 30 29 29 29 28 27 26 26 25 23 22 22 21 20 20 19 18 17 18 20 20 20 20 20 19 19 19 20 22 24 24 24 23 23 24 24 23
22 19 15 13 11 10 10 10 11 11 11 11 11 10 11 11 11 12 12 12 13 14 15 16 16 17 20 22 22 23 22 22 24 27 28 27 26 25 21 25 30 29 26 26 27 29 29 29 29 30 30 30 30 28 27 27 26 24 23 23 22 22 22 21 21 19 19 21 22 23 22 21 20 20 20 20 21 23 24 24 23 23 24 25 25
31 29 26 22 18 15 12 11 10 9 9 10 10 10 10 10 11 11 11 11 12 13 14 15 15 15 17 21 23 25 24 23 22 23 26 27 28 28 25 23 26 29 27 25 25 27 29 30 30 30 30 30 30 30 29 28 28 27 26 25 24 25 24 22 23 23 22 22 23 25 26 25 23 22 22 22 22 23 24 24 23 23 24 24 25
35 34 33 31 29 26 23 20 17 14 11 9 8 7 7 8 9 10 10 11 11 11 12 13 14 14 15 17 21 25 26 25 24 24 24 25 26 28 28 27 27 28 27 26 26 26 27 29 31 31 31 31 31 31 31 31 31 30 29 27 27 27 25 25 27 26 25 25 25 27 29 29 28 27 25 25 25 25 25 24 24 24 24 24 25
40 38 37 35 34 33 32 30 28 25 22 19 15 12 8 6 6 6 7 8 9 10 10 11 12 13 14 15 18 22 26 26 26 25 25 26 26 26 28 29 29 29 29 29 30 30 28 28 29 29 30 30 31 32 32 32 32 32 32 31 30 29 28 27 29 28 28 28 29 29 30 31 32 32 31 29 29 28 28 27 26 25 25 24 24
45 43 42 40 39 37 36 34 33 32 30 28 26 23 20 15 11 7 5 4 5 6 7 9 10 11 13 14 16 19 22 25 27 27 26 26 27 28 28 30 30 31 31 31 33 35 34 31 30 30 29 29 30 31 32 32 33 33 34 34 34 33 34 33 32 31 31 31 32 33 32 32 33 33 33 33 32 31 31 30 29 28 27 27 26
44 44 44 43 42 41 39 38 37 35 34 32 31 29 27 25 22 19 14 10 6 3 4 6 7 9 11 12 14 15 18 21 24 27 28 28 27 28 29 31 32 32 33 33 34 37 37 36 34 34 33 32 31 31 31 32 33 34 34 34 35 36 37 37 37 36 35 34 35 36 35 33 32 33 33 33 33 33 33 32 32 31 30 30 29
41 41 41 41 41 40 40 39 38 38 37 35 34 32 31 29 27 25 23 20 16 12 8 4 3 5 8 10 12 14 15 17 20 23 25 28 29 30 30 32 33 34 35 35 36 38 40 40 39 38 38 37 37 36 34 33 33 34 34 34 34 35 36 37 38 39 38 38 37 38 37 35 34 34 34 34 33 34 34 34 34 33 33 32 32
38 38 39 39 39 39 38 38 38 37 37 36 35 34 33 32 30 29 27 25 23 21 18 15 11 7 3 3 6 9 12 15 17 20 22 25 27 29 31 32 33 35 36 37 38 39 40 41 41 40 40 40 40 41 41 39 36 35 35 35 34 34 36 38 39 38 39 39 39 39 40 38 36 36 35 34 34 34 35 36 36 35 35 34 34
35 35 36 36 37 37 37 37 37 37 36 36 35 34 33 33 32 31 30 29 27 26 24 22 19 17 14 10 7 3 1 5 10 13 17 21 24 27 30 32 34 35 37 38 39 40 41 42 42 41 40 40 40 41 43 44 43 41 38 37 37 36 36 39 41 40 39 38 39 40 41 40 39 38 37 36 35 36 36 38 38 37 36 36 36
32 32 33 34 34 35 35 36 36 36 36 36 35 35 34 33 32 32 31 30 29 28 27 26 25 24 22 20 18 15 11 8 5 2 5 9 14 19 23 28 32 35 37 39 40 41 42 43 44 44 43 43 42 42 42 44 46 47 45 41 40 40 40 41 44 45 44 41 40 40 41 41 41 40 39 38 37 38 39 39 39 40 39 38 38
29 30 30 31 32 32 33 33 34 34 35 35 35 35 34 34 33 32 31 30 29 29 28 27 27 26 25 24 23 21 19 17 15 12 9 6 4 5 9 15 20 25 31 36 39 42 44 45 45 46 47 47 47 46 45 45 45 46 48 48 45 44 44 44 45 49 50 47 45 44 42 42 43 43 42 40 38 39 41 41 41 42 42 40 39
27 28 28 29 29 30 30 30 31 31 32 32 32 32 32 32 32 31 31 30 29 29 28 27 27 26 25 25 24 23 22 21 20 18 16 14 12 9 7 6 7 10 15 21 28 34 39 44 46 48 49 50 50 50 50 50 49 48 48 50 50 49 48 48 47 49 52 51 49 48 47 46 45 46 46 43 40 40 42 43 43 44 45 43 42
25 26 26 27 27 27 27 28 28 28 28 29 29 29 29 29 29 29 29 29 28 28 27 27 26 26 25 25 24 24 23 23 22 21 20 19 17 15 13 11 9 7 7 9 13 18 24 31 37 43 48 50 52 52 53 54 54 54 53 52 52 51 51 51 51 51 53 54 52 50 50 51 50 49 49 46 43 42 43 43 45 47 47 46 45
23 23 24 24 25 25 25 25 25 25 25 26 26 26 26 27 27 27 26 26 26 26 25 25 25 25 25 24 24 24 24 24 23 23 23 22 21 20 19 17 15 13 12 10 9 10 12 16 22 28 36 42 47 51 53 55 56 57 57 57 56 55 54 54 54 53 54 55 55 52 50 50 51 53 53 51 48 46 45 44 45 47 48 48 47
19 20 21 21 22 22 23 23 23 23 23 24 24 24 24 24 24 25 25 24 24 24 24 23 23 23 24 24 24 24 24 24 24 24 24 24 23 23 22 21 20 18 17 16 14 13 12 12 13 17 21 27 33 39 45 51 55 57 59 60 60 60 60 59 58 57 56 56 56 56 52 49 48 50 53 56 55 52 49 49 49 48 49 49 48
17 17 17 18 18 19 20 20 20 21 21 21 22 22 22 22 22 23 23 23 23 23 23 23 23 23 23 24 24 25 25 26 26 26 26 26 26 26 25 24 24 23 22 20 19 17 16 15 15 15 16 19 22 26 31 37 44 50 55 59 61 62 63 63 62 62 61 60 59 58 57 54 51 49 50 53 56 56 55 54 54 52 50 49 48
15 15 15 15 15 16 16 17 17 17 18 18 18 19 19 19 20 20 20 21 21 21 22 22 23 23 23 24 25 25 26 27 28 28 28 29 29 29 28 28 28 27 27 26 24 22 21 20 18 17 17 18 19 21 24 27 31 36 42 49 55 60 63 65 65 65 64 64 64 63 61 60 58 54 51 50 52 56 59 59 57 55 53 50 49
13 13 13 13 13 13 13 14 14 14 14 15 16 16 17 17 18 18 19 19 20 20 20 21 22 22 22 23 24 25 26 27 28 29 29 30 31 31 31 31 31 31 31 31 30 29 28 26 24 22 20 19 19 20 22 24 27 29 32 37 42 48 55 60 65 67 68 67 67 67 66 65 64 62 59 54 51 52 57 60 60 60 57 53 51
11 11 11 12 12 12 12 12 12 12 13 13 14 15 16 17 17 18 19 19 20 20 20 21 21 22 22 23 24 24 25 26 28 29 30 30 31 32 32 33 33 34 34 34 34 34 34 33 32 30 27 25 23 21 21 23 25 27 30 32 35 38 43 48 54 60 65 68 69 69 69 69 68 67 66 62 57 53 54 57 61 63 61 58 55
10 10 10 11 11 11 11 11 11 12 13 13 14 14 15 16 17 18 19 19 20 20 20 21 21 21 22 23 24 24 25 26 28 29 30 31 31 32 33 34 35 36 36 37 37 37 38 37 37 36 35 33 31 29 26 25 25 26 28 31 33 35 37 40 44 49 54 60 66 69 70 70 70 70 70 69 65 59 56 56 59 62 62 63 60
12 12 12 12 12 12 12 11 12 12 13 14 14 15 15 16 17 18 19 19 20 21 21 22 21 21 21 22 23 24 25 26 28 29 30 31 32 33 34 35 37 38 39 40 40 39 39 40 41 40 40 39 38 36 35 32 30 28 28 29 32 34 36 38 40 43 46 50 55 61 67 70 71 71 71 72 71 68 62 58 59 62 63 65 64
13 14 14 15 15 15 15 15 16 16 17 18 18 19 19 19 20 20 21 22 22 22 23 24 24 23 23 23 24 25 26 27 28 30 31 32 33 34 35 36 38 40 41 43 44 44 42 41 43 44 44 44 43 42 41 40 38 36 33 31 31 33 36 38 39 41 43 45 48 52 57 64 69 71 72 72 73 73 70 64 61 63 65 66 66
14 14 15 16 17 18 18 18 18 19 20 20 21 22 23 22 22 23 23 24 24 24 24 25 25 26 25 25 26 26 27 28 29 31 32 33 34 36 37 38 40 42 43 44 46 48 48 46 45 46 46 47 48 47 46 45 43 42 41 38 36 35 36 38 40 41 43 44 46 48 50 55 61 67 71 73 73 74 74 71 67 65 67 69 68
15 15 16 17 18 19 19 19 19 20 20 20 21 22 23 23 24 24 24 25 24 24 24 25 25 25 26 26 27 28 29 31 32 33 34 35 36 37 39 40 42 43 45 46 47 50 52 52 50 49 50 50 50 51 51 50 49 47 46 45 42 40 39 39 40 42 44 45 46 47 49 51 54 59 66 71 74 74 75 75 72 70 69 71 72
17 17 17 18 19 20 21 21 21 21 22 22 23 23 24 24 24 25 25 26 26 26 27 27 26 27 27 28 29 30 31 33 35 36 37 38 39 40 41 42 44 45 46 48 49 51 53 55 54 53 53 54 54 54 54 54 54 53 52 50 47 46 44 43 42 43 44 46 47 48 49 51 52 54 58 64 70 74 76 76 76 74 73 73 74
19 18 18 19 20 21 22 23 23 24 24 25 25 26 26 26 26 26 26 27 28 29 30 30 30 30 31 32 32 33 35 36 38 39 40 41 42 43 44 45 46 48 48 50 51 53 54 56 57 57 57 57 58 59 59 58 57 57 57 56 53 51 49 47 46 45 46 47 49 50 50 51 53 54 54 57 62 69 74 77 77 77 77 77 77
20 20 20 21 22 23 23 24 25 26 26 27 27 28 28 27 27 28 28 28 29 31 32 33 33 34 35 35 36 37 38 39 40 42 44 45 46 47 48 49 50 51 53 54 55 56 57 58 60 61 61 61 61 62 63 62 61 60 59 59 58 57 54 52 50 49 48 49 51 52 53 52 53 55 56 56 57 61 67 74 78 79 79 79 79
22 23 23 23 24 25 25 26 26 27 28 28 29 30 29 29 29 30 30 31 32 33 34 35 36 37 37 38 39 40 41 42 43 45 46 48 49 50 52 53 54 55 57 58 59 60 61 61 62 64 65 65 66 66 66 66 65 64 62 60 60 60 59 57 55 53 51 51 52 54 56 56 55 56 57 58 59 59 62 67 73 78 80 81 81
25 25 25 24 24 26 28 29 29 30 30 30 31 31 32 32 32 33 34 35 35 36 37 37 38 39 40 41 42 43 44 45 46 48 49 50 52 54 55 56 57 59 60 62 64 64 65 65 65 67 69 70 70 70 69 68 67 66 65 63 61 60 60 60 59 57 54 53 54 56 57 58 58 58 58 59 60 61 62 63 66 72 78 81 83
27 27 27 26 26 28 30 31 32 33 33 33 33 34 34 35 35 36 37 38 39 40 40 40 40 41 43 44 45 45 46 47 49 50 52 54 55 57 58 59 61 63 65 67 68 69 69 69 70 71 72 74 74 74 72 71 69 68 67 66 64 62 61 60 61 60 58 56 56 57 58 60 60 61 61 61 61 62 64 65 65 67 71 77 82
29 29 29 30 30 32 33 34 34 34 35 35 36 36 36 37 38 39 40 41 42 42 42 42 42 43 45 47 47 48 49 50 52 54 55 57 59 60 61 63 65 68 70 71 72 73 73 74 74 75 76 77 77 76 74 72 70 69 68 67 67 65 63 62 61 62 61 60 59 59 60 62 62 62 63 63 63 63 64 65 67 68 69 72 76
31 32 32 33 34 36 37 37 37 38 38 39 39 39 39 40 41 41 42 43 43 43 43 43 44 46 48 49 50 51 52 53 55 57 59 61 62 64 65 67 69 72 74 75 75 76 77 78 79 80 80 80 79 77 75 73 71 70 69 69 68 68 67 66 65 64 63 63 62 61 62 63 64 64 65 65 65 65 65 65 67 69 71 71 73
34 35 35 36 37 38 38 39 39 39 40 40 41 41 42 42 43 43 43 43 43 44 45 45 47 49 51 53 54 55 56 56 58 60 62 63 65 67 69 71 73 75 77 78 78 79 81 82 83 83 83 81 79 77 74 73 72 71 71 70 69 69 69 68 68 68 66 65 66 65 64 65 66 67 68 68 68 68 66 66 68 70 71 72 73
36 36 36 36 36 37 37 37 37 38 39 40 41 41 42 43 43 43 43 44 44 45 47 49 51 53 54 56 57 58 59 60 61 62 64 65 67 69 71 73 75 77 78 79 81 83 84 85 85 85 83 80 78 76 74 73 73 73 72 72 71 70 70 69 70 70 69 68 68 68 69 69 68 69 70 70 70 70 69 68 69 70 71 72 73
35 35 35 34 33 34 35 35 36 37 38 40 41 42 43 44 45 45 45 45 46 48 50 52 54 56 57 59 60 62 63 64 65 66 67 69 70 71 73 75 77 79 80 82 83 85 86 86 86 84 81 78 76 75 74 75 75 74 73 73 71 70 69 69 69 70 70 69 70 70 71 73 72 71 72 73 72 72 72 71 72 72 72 73 74
34 34 32 31 32 33 34 35 35 37 38 39 41 43 45 47 48 48 48 49 50 52 54 56 58 59 61 63 64 65 66 67 68 69 71 72 73 75 76 78 79 81 82 84 86 86 86 86 84 81 78 76 75 74 75 76 76 75 73 72 70 68 67 66 66 67 68 68 69 70 72 75 75 73 74 76 76 75 74 74 74 74 74 74 74
34 33 32 32 32 34 35 36 37 38 39 40 42 44 46 48 50 51 52 53 55 56 58 60 62 64 65 66 67 67 68 69 70 72 73 75 76 78 79 81 83 84 85 86 86 86 85 83 80 77 75 74 73 74 75 75 75 74 72 70 68 67 65 63 62 63 65 66 67 68 70 73 75 75 76 78 78 77 76 76 77 76 75 75 75
34 33 33 33 34 35 36 38 39 40 42 43 45 47 49 51 53 54 56 58 60 61 63 64 66 66 67 68 68 68 69 71 72 74 75 77 78 80 83 85 87 87 88 88 87 85 82 79 76 74 73 73 73 73 73 73 72 71 70 68 66 65 63 61 59 60 61 63 64 66 68 71 73 74 76 78 78 78 78 78 79 78 77 77 77
34 34 34 34 35 37 38 40 42 43 45 47 49 51 53 54 55 56 58 60 62 64 65 66 67 67 68 68 69 70 71 72 73 75 77 79 81 83 85 87 89 89 89 88 86 83 79 76 74 73 72 72 72 71 70 70 69 68 67 65 64 62 61 60 58 57 58 60 62 64 66 68 70 71 73 75 76 78 79 80 80 80 78 78 79
34 35 36 37 38 40 41 43 45 47 49 50 52 53 55 57 57 59 60 61 62 64 65 65 66 67 68 69 70 71 72 73 75 77 79 81 84 86 88 89 90 90 89 88 85 81 77 74 73 73 72 71 70 68 67 66 65 65 64 63 61 60 59 58 57 57 57 57 59 62 63 65 67 68 68 71 73 76 79 80 80 80 80 80 80
35 36 37 40 42 44 45 47 49 51 53 54 55 56 57 58 60 61 62 62 63 64 65 65 66 67 68 69 71 72 73 76 78 80 82 84 86 88 89 90 90 90 88 86 82 79 77 76 75 74 73 71 69 66 64 63 63 62 61 61 60 58 57 56 55 56 56 55 56 59 61 61 64 66 66 68 71 74 77 79 80 81 81 82 82
37 39 42 45 49 51 52 54 56 58 59 59 60 60 60 61 62 63 64 64 64 65 65 65 66 67 69 71 73 75 77 80 82 84 86 88 89 91 91 91 91 89 86 83 80 79 78 78 77 77 75 73 69 66 62 60 59 59 58 58 58 57 56 55 54 54 55 55 54 56 58 60 62 64 65 66 69 71 74 77 79 81 82 83 83
Wind_Direction
88 93 98 100 101 99 96 96 96 97 101 109 116 121 124 125 126 125 128 131 131 130 132 138 143 150 157 152 145 142 135 131 129 127 137 156 161 161 163 161 163 170 174 177 178 182 186 186 189 189 189 193 194 193 193 195 199 209 216 218 224 233 240 242 243 246 249 248 243 240 240 237 237 237 233 226 216 209 210 215 219 218 217 223 234
89 91 95 98 100 98 95 94 93 94 97 106 116 122 126 127 127 130 133 135 133 132 132 140 149 155 159 151 148 147 139 133 130 128 133 154 165 163 162 161 163 173 179 181 183 185 188 190 192 192 194 198 199 200 204 206 210 216 217 220 232 245 246 245 245 245 247 248 244 244 243 238 235 236 232 221 212 211 214 219 220 218 218 226 236
89 91 93 95 98 100 100 98 98 98 100 106 115 123 128 129 130 133 138 140 138 135 133 139 150 159 161 153 153 153 144 136 134 133 136 153 170 170 165 164 165 172 179 185 189 191 191 193 196 199 203 207 211 216 221 225 229 232 231 235 246 250 247 247 249 246 247 247 244 243 244 238 231 232 230 216 209 213 218 223 220 217 221 228 235
91 91 93 94 96 101 104 106 105 106 106 108 114 121 128 131 133 135 141 145 144 142 138 139 148 158 161 156 158 160 152 143 140 140 142 153 172 177 171 168 169 171 176 183 190 195 194 195 200 202 207 213 217 222 226 230 231 233 237 243 248 248 247 248 249 248 248 246 242 239 239 236 229 229 225 214 211 214 219 224 220 217 222 229 235
90 93 95 96 96 99 104 108 109 110 110 111 114 118 123 129 135 138 142 147 149 151 147 141 145 153 160 160 162 167 162 152 147 146 147 151 170 181 179 174 174 176 180 184 189 197 198 199 203 204 208 213 217 220 223 224 227 233 240 244 244 244 245 248 249 251 249 242 238 235 235 232 228 225 219 213 215 218 222 224 219 218 224 230 234
87 91 93 96 100 102 104 107 109 110 110 112 115 118 120 124 133 140 145 148 151 157 158 151 146 149 156 161 164 171 172 165 156 153 153 154 165 182 185 181 180 182 185 189 192 197 201 204 207 209 211 215 218 221 223 226 231 236 239 240 239 240 244 247 250 250 244 236 234 233 231 228 225 221 217 217 221 222 225 227 222 219 224 232 235
90 90 91 92 95 101 105 108 111 111 111 112 115 119 120 121 129 141 150 154 154 157 162 161 157 153 155 162 167 173 178 179 173 164 162 161 164 179 189 189 188 188 189 193 197 200 203 206 210 213 215 218 221 224 227 231 235 236 236 236 234 237 243 245 246 247 240 233 234 233 226 223 223 220 219 223 226 226 228 229 227 223 225 231 235
95 95 95 93 91 96 101 105 109 111 113 114 116 118 120 122 128 139 149 158 161 162 163 165 166 165 163 164 169 174 181 187 188 181 171 168 169 176 192 197 195 195 196 198 201 203 206 209 211 215 218 221 224 227 229 232 234 235 235 236 233 232 238 241 244 245 239 233 234 232 225 221 222 222 225 228 229 228 229 232 232 229 228 230 234
94 97 100 100 98 98 100 104 109 112 116 118 120 121 122 124 129 138 148 157 165 168 168 169 172 175 175 172 172 177 182 189 195 195 188 180 177 178 194 206 202 200 204 205 204 205 208 212 215 217 220 223 226 227 228 229 232 233 234 235 232 228 234 241 244 245 241 236 234 231 226 224 225 227 229 231 230 229 231 234 236 235 234 233 234
82 86 91 95 98 100 102 105 109 112 115 120 123 126 129 132 134 138 145 153 162 170 174 176 178 180 181 180 178 179 183 190 195 200 201 198 192 188 194 208 210 209 211 213 214 213 213 215 218 222 225 227 229 229 229 229 230 231 231 233 231 229 235 243 245 245 245 240 235 231 228 227 229 231 233 233 232 231 232 236 239 239 239 238 237
77 78 79 81 83 86 89 94 101 108 113 118 120 123 128 134 140 145 148 152 158 166 173 179 184 184 184 186 186 185 186 191 196 201 206 208 207 205 200 204 212 216 218 217 217 221 224 225 225 227 229 232 234 235 234 233 232 234 236 235 234 233 236 242 245 247 246 241 236 233 231 231 232 233 235 237 236 234 235 238 241 243 243 243 242
78 78 78 78 78 78 78 79 81 85 92 101 111 117 123 127 133 142 149 156 160 166 172 177 183 186 186 188 191 192 191 192 197 202 207 211 212 214 212 209 212 217 220 216 212 216 223 230 234 234 235 236 237 238 239 238 239 241 242 239 237 236 236 240 243 246 247 243 239 236 234 234 236 237 237 238 239 238 238 240 242 245 246 246 245
77 77 77 77 77 77 77 77 76 77 78 79 83 88 96 110 123 135 146 154 160 166 173 179 185 190 191 191 192 195 197 196 197 201 207 213 216 218 219 218 217 218 220 218 214 213 214 219 227 233 236 239 240 241 241 242 243 244 244 242 239 236 236 238 241 243 244 244 243 240 238 237 238 239 239 239 240 241 241 242 243 245 247 249 248
76 76 76 75 75 76 76 76 76 76 76 76 76 78 80 83 88 97 119 149 168 175 181 185 190 194 198 200 199 200 203 203 203 203 205 211 217 220 222 223 223 223 224 222 219 219 219 218 220 223 228 233 238 242 244 245 246 246 246 245 243 240 237 239 242 244 242 241 243 243 241 240 238 238 239 239 240 241 242 243 244 246 248 250 251
77 76 75 75 74 74 74 74 74 74 75 75 75 75 76 77 79 80 83 88 98 139 187 204 208 210 212 212 212 212 211 211 212 211 210 210 213 218 223 225 227 228 228 228 225 224 225 226 225 223 223 225 230 236 241 244 246 247 247 246 245 244 242 240 241 243 242 240 242 243 242 241 239 237 238 238 238 240 241 242 244 247 248 249 250
79 78 77 77 76 76 75 74 74 73 73 73 73 73 73 73 75 75 77 79 80 83 89 104 166 215 226 229 228 227 225 224 223 222 221 219 217 217 220 224 227 229 230 231 231 229 229 230 231 231 230 230 231 233 236 239 241 243 246 247 245 244 244 243 241 240 240 240 241 242 243 242 240 238 238 238 239 239 241 243 245 247 248 249 250
79 79 79 79 79 78 77 77 76 75 74 73 72 72 72 71 71 72 72 73 74 75 76 77 79 84 106 204 230 235 235 236 235 235 233 231 229 226 225 225 226 228 230 232 233 233 233 233 235 236 237 238 237 236 235 236 238 239 240 243 244 242 240 241 244 242 239 239 240 241 242 242 241 240 239 239 240 240 242 244 245 247 248 249 249
78 78 79 79 79 79 79 78 77 76 75 74 74 73 72 71 70 70 69 69 69 70 70 70 69 69 69 70 71 72 237 244 243 243 242 241 240 237 235 233 232 231 231 232 234 235 235 235 235 235 236 237 238 238 236 236 238 238 238 238 239 240 237 235 240 245 244 241 240 241 242 241 241 241 240 240 241 241 243 245 246 247 248 249 249
77 77 78 78 79 79 79 79 78 77 77 76 75 74 72 71 70 70 69 68 68 67 67 66 66 65 64 63 62 60 57 52 38 335 272 258 252 248 245 243 241 239 237 236 236 236 236 237 237 236 236 237 237 237 237 237 237 238 238 237 236 236 237 234 234 239 245 247 244 242 242 242 241 240 238 240 243 244 245 247 249 250 250 250 250
75 75 76 76 76 77 77 78 78 77 77 76 75 74 73 72 71 70 69 69 68 67 66 65 64 64 63 62 61 60 58 56 53 49 41 26 351 296 270 260 253 249 245 243 241 240 239 239 239 239 239 240 239 239 238 238 238 237 237 238 238 236 235 236 233 233 238 243 245 245 243 242 241 239 238 239 243 247 248 248 250 253 253 253 254
74 74 75 74 74 74 74 74 75 75 74 73 72 72 71 70 70 69 69 68 68 67 66 65 64 63 62 61 60 58 57 56 54 51 48 44 38 30 12 339 300 276 263 255 251 248 246 244 243 243 243 243 243 242 242 241 241 240 238 238 239 239 237 236 235 233 234 236 239 241 243 242 241 241 240 239 241 245 249 251 252 253 254 255 255
71 71 71 71 71 71 71 71 71 70 69 68 67 67 67 66 66 65 65 65 65 64 63 62 61 59 58 57 55 54 53 51 50 48 45 43 40 35 30 23 12 353 323 292 274 263 257 253 250 248 247 246 246 245 245 245 244 244 243 241 240 241 241 239 238 236 235 235 235 236 238 240 241 241 241 239 239 241 245 250 254 254 253 254 255
69 69 68 67 66 66 66 66 65 64 62 61 60 60 60 60 59 59 59 58 58 57 56 55 53 51 50 48 47 46 45 43 42 41 39 38 36 34 31 27 22 16 7 352 331 307 286 271 262 257 254 252 250 249 248 247 247 246 246 246 244 243 243 242 241 240 239 238 237 236 235 235 237 239 241 239 237 239 242 245 249 253 254 253 254
67 68 67 65 64 63 61 60 59 57 55 53 53 53 52 52 51 50 50 49 48 47 45 44 43 41 39 37 35 34 33 32 31 30 29 29 28 27 26 24 22 19 16 10 2 349 333 313 293 278 269 263 258 255 252 250 249 248 248 247 247 246 245 245 244 243 241 241 241 240 238 235 232 234 238 240 239 238 241 243 244 248 252 255 255
60 61 62 62 62 61 59 57 55 52 49 47 45 44 43 42 41 40 39 38 37 36 35 33 32 30 29 27 24 22 20 19 19 18 18 17 17 16 16 15 14 13 12 10 9 4 357 346 332 315 299 286 276 268 261 257 253 251 250 249 248 248 247 247 246 245 244 243 242 242 242 241 237 232 231 235 239 239 238 241 243 244 248 253 254
48 49 50 50 51 52 53 52 50 47 44 40 37 34 31 30 29 29 28 27 27 27 25 24 23 21 20 19 16 14 11 10 9 8 8 8 7 7 6 6 5 4 3 1 1 0 359 355 348 340 328 314 302 290 280 270 263 258 254 251 250 249 248 248 247 247 246 245 243 243 243 243 243 240 234 230 233 237 237 238 240 242 244 247 250
36 37 37 36 37 37 38 39 39 37 34 29 25 21 18 15 15 15 15 15 15 15 15 15 13 12 12 12 11 8 5 3 2 1 0 360 359 359 358 358 357 356 355 354 353 352 351 350 347 344 340 332 322 311 300 289 280 272 265 258 254 251 249 248 248 247 247 247 246 244 243 243 243 243 242 236 230 231 234 236 237 238 239 241 246
20 22 23 21 19 19 20 19 19 18 17 15 11 8 6 4 3 2 2 3 3 4 5 5 4 2 1 2 2 2 359 357 356 355 354 354 353 352 352 351 351 350 349 348 347 346 345 344 342 340 338 335 331 324 314 304 294 286 279 271 265 258 253 250 248 247 247 247 246 246 244 244 243 242 243 243 237 230 229 232 233 235 236 237 241
0 2 5 3 359 358 359 359 358 359 358 357 356 355 354 353 352 352 351 351 352 353 354 355 355 353 352 352 353 354 353 351 350 349 348 348 347 346 346 345 344 344 343 342 342 341 340 339 338 336 335 333 330 327 321 314 305 296 288 282 276 270 263 256 252 249 247 246 246 246 245 244 243 242 242 243 242 236 230 228 230 231 233 235 237
346 347 347 345 340 337 337 338 339 340 340 340 339 339 340 340 341 340 340 341 341 342 343 344 345 345 344 344 345 346 346 345 344 343 342 342 341 341 341 340 340 339 338 337 336 336 335 334 333 332 331 329 328 326 322 319 313 305 296 288 282 277 272 266 260 254 250 247 245 245 245 244 243 243 242 242 242 240 235 229 227 227 229 232 234
333 336 334 331 329 328 328 330 331 333 334 333 332 332 332 332 332 332 331 332 333 334 334 334 336 337 337 336 338 339 340 339 338 337 337 336 336 336 336 336 336 335 334 334 332 331 331 330 328 328 327 326 324 323 321 318 315 311 304 296 287 280 275 271 267 262 256 252 247 245 244 244 243 242 241 241 241 241 239 233 227 225 226 229 231
323 325 324 323 323 323 323 324 325 327 328 327 327 326 326 326 325 324 323 323 324 325 326 327 328 329 330 330 331 333 334 333 333 332 331 331 331 330 330 330 331 331 330 330 329 327 327 326 325 324 323 322 321 320 318 316 314 311 307 302 295 287 279 273 269 266 263 258 252 248 245 244 243 242 241 241 240 240 239 237 231 226 224 226 228
317 317 317 318 318 318 317 316 315 314 315 316 316 316 316 315 315 313 312 312 314 315 317 318 320 321 322 323 325 327 328 328 328 327 327 326 326 326 325 325 326 326 326 326 326 324 323 323 322 321 320 319 318 317 315 313 312 309 306 303 298 292 285 277 270 266 264 261 257 252 248 245 244 243 241 240 240 239 239 238 235 230 225 225 227
311 312 313 314 315 314 313 311 309 307 306 306 306 307 308 309 309 309 307 307 309 311 313 315 316 317 318 319 320 321 322 323 323 323 323 322 322 321 321 320 320 321 321 322 322 321 320 319 319 319 318 317 315 314 312 311 309 307 305 301 298 293 288 281 274 267 263 260 258 256 252 248 245 244 242 241 240 239 238 238 237 234 229 225 226
306 307 309 311 312 311 309 307 305 304 303 302 302 303 305 308 309 309 308 308 309 311 313 315 317 318 318 319 319 319 319 319 319 319 319 319 319 318 318 317 317 317 318 318 318 318 317 316 316 316 315 314 313 312 310 309 307 305 302 300 297 292 288 283 276 269 264 260 257 255 253 251 248 245 243 242 241 240 239 238 237 236 233 229 226
301 301 302 304 306 306 305 303 302 302 302 302 302 302 304 307 308 309 309 309 309 310 312 315 317 318 318 318 317 317 316 316 316 316 317 317 317 317 316 315 315 315 316 316 316 316 315 314 314 313 313 312 311 310 308 307 305 302 299 297 295 292 287 282 277 271 265 261 257 254 252 250 249 247 245 243 242 241 240 239 238 237 236 234 230
299 299 299 299 301 303 303 302 301 301 301 301 301 301 303 305 306 308 308 308 308 310 312 314 315 315 315 315 315 314 314 313 314 314 315 315 315 314 314 313 314 314 314 314 314 314 314 313 312 312 311 310 309 308 306 304 302 299 296 293 291 289 286 282 277 271 265 261 257 254 251 249 248 247 246 244 243 242 241 240 239 238 237 236 234
299 299 297 296 298 302 303 303 302 302 302 302 302 302 302 303 305 307 308 308 308 309 310 311 312 313 313 312 312 312 312 312 312 312 313 312 312 312 312 312 312 312 312 313 313 313 313 312 311 310 310 309 308 306 304 302 299 297 294 291 288 285 283 281 278 273 266 260 256 254 251 248 246 246 246 245 243 242 242 241 240 238 238 237 237
297 297 296 295 296 299 300 300 300 301 302 301 302 302 303 303 304 306 308 308 309 308 308 308 309 311 311 310 310 311 310 310 311 311 310 310 310 310 311 311 311 311 312 312 313 313 312 311 310 309 308 307 306 304 302 300 297 295 293 290 287 284 281 279 277 274 268 261 255 252 250 247 246 245 244 244 244 242 241 241 241 240 238 238 237
298 299 299 297 297 298 298 298 299 300 300 300 301 302 303 303 304 305 306 307 308 308 308 309 309 309 309 309 309 309 309 309 310 309 309 308 308 309 310 310 310 311 312 312 313 313 312 311 310 308 307 306 304 302 300 298 296 293 291 289 287 284 281 277 275 273 269 264 257 252 249 247 245 244 244 243 244 243 241 240 240 241 239 238 238
299 299 299 298 297 297 297 298 299 300 301 301 302 303 303 303 303 303 304 305 307 308 309 309 309 308 308 308 308 308 308 309 308 308 307 307 308 308 309 309 310 311 311 312 312 312 311 310 308 307 306 304 303 301 299 297 294 292 289 287 285 283 281 278 275 271 268 265 261 254 249 246 244 243 243 242 242 243 242 241 240 240 240 239 238
297 297 297 297 297 298 298 300 301 302 304 304 305 305 305 305 305 305 306 307 308 309 309 309 309 308 308 308 309 308 308 307 306 306 306 306 307 307 308 308 309 310 311 311 311 310 310 308 307 306 304 303 301 300 298 296 293 291 288 286 284 282 279 277 274 270 266 263 261 257 252 247 243 242 241 241 241 242 242 242 240 239 239 239 239
294 295 297 298 299 300 301 303 306 307 308 308 308 307 306 306 305 305 306 307 308 308 307 307 307 308 308 308 308 307 306 306 305 305 305 306 306 306 306 307 308 309 309 310 310 309 308 307 306 304 303 302 300 299 297 295 292 290 287 285 283 281 278 275 272 269 266 262 259 256 253 248 244 241 241 240 240 241 241 241 241 239 238 238 239
296 297 298 299 300 302 305 308 310 311 311 311 310 308 307 305 305 305 305 305 305 305 305 305 306 307 307 307 307 307 306 306 306 306 307 307 306 306 306 307 308 308 308 308 308 307 306 305 304 303 302 301 299 298 296 294 291 289 287 286 283 281 277 274 271 269 266 263 259 255 253 250 246 242 240 239 239 239 240 240 241 240 238 237 237
295 295 297 299 299 300 303 307 309 310 311 310 309 307 306 304 304 304 303 303 303 303 304 305 307 307 308 308 307 307 307 307 307 307 307 307 306 306 307 307 308 308 308 307 307 306 306 304 303 302 301 300 299 298 296 294 292 290 289 287 284 282 278 274 271 268 265 262 260 256 252 251 248 244 241 239 238 237 238 239 240 240 239 237 236
293 294 297 298 298 297 299 301 304 306 308 308 307 306 305 304 304 304 303 303 304 305 306 307 307 308 308 308 308 308 307 307 307 307 306 306 307 307 308 308 308 308 307 307 307 306 305 304 303 302 301 301 300 298 296 294 292 291 289 287 285 282 279 275 271 267 265 261 259 256 253 251 249 246 243 240 238 237 237 238 239 239 238 238 236
295 296 298 299 299 299 299 300 302 305 306 307 306 306 306 306 306 306 306 306 306 306 306 307 307 307 307 307 307 307 307 306 306 306 306 307 308 308 308 308 308 308 308 308 308 307 306 304 304 304 304 302 300 298 296 294 292 291 289 287 285 282 279 276 271 267 264 261 258 256 253 251 249 246 244 242 240 238 236 236 237 237 236 236 236
296 299 300 300 301 302 303 304 306 307 307 307 307 307 307 307 307 307 307 307 306 306 306 306 306 306 306 307 306 306 305 305 305 306 307 308 308 308 309 309 309 309 310 310 309 308 307 307 307 307 306 304 302 299 297 295 293 291 289 287 285 282 279 276 272 268 264 261 258 255 253 251 250 248 245 244 242 239 237 236 236 236 235 234 234
299 301 302 304 305 306 308 310 311 311 309 308 307 307 307 307 308 308 307 307 306 306 306 305 306 306 306 305 305 305 305 305 306 307 308 308 309 309 310 310 311 311 311 311 310 309 309 310 310 309 308 306 303 301 299 296 294 292 290 288 285 282 279 276 273 269 264 260 257 256 253 251 250 248 245 243 242 240 238 236 234 234 234 232 232
299 301 304 307 309 309 311 312 313 312 311 309 308 308 308 309 309 309 309 308 307 307 306 306 306 306 305 305 304 305 305 306 306 307 308 309 310 311 311 311 312 312 312 312 312 312 313 313 313 311 309 307 305 302 300 297 295 293 290 288 285 282 279 276 273 269 265 261 257 256 254 251 249 248 245 242 241 239 237 236 233 232 232 231 231
298 301 305 308 309 309 311 312 312 313 313 312 311 310 310 310 310 310 309 309 308 307 307 306 306 305 305 304 305 305 306 306 307 308 309 310 311 312 312 313 314 314 314 314 314 315 316 316 316 314 312 309 306 303 300 297 295 293 291 288 286 283 279 276 272 269 266 262 258 254 253 252 249 247 245 242 240 238 237 236 233 231 230 230 230
Height
10648 10648 10647 10647 10647 10646 10645 10646 10645 10646 10647 10647 10647 10648 10649 10650 10651 10652 10654 10656 10658 10660 10662 10663 10664 10666 10668 10670 10672 10674 10677 10680 10683 10685 10689 10691 10694 10696 10698 10700 10702 10704 10705 10707 10709 10710 10711 10713 10714 10715 10717 10718 10720 10722 10724 10726 10727 10729 10731 10733 10734 10735 10736 10737 10737 10737 10737 10738 10738 10739 10739 10740 10741 10742 10742 10743 10744 10744 10745 10746 10747 10747 10748 10749 10749
10650 10650 10650 10649 10649 10648 10648 10648 10649 10649 10649 10650 10650 10651 10651 10652 10653 10655 10656 10658 10660 10662 10664 10665 10666 10667 10669 10671 10674 10676 10678 10681 10683 10686 10689 10692 10694 10696 10698 10700 10703 10705 10706 10708 10709 10710 10711 10712 10713 10715 10716 10718 10720 10722 10724 10726 10727 10729 10731 10732 10733 10734 10735 10735 10735 10736 10736 10736 10737 10738 10738 10739 10740 10740 10741 10742 10743 10744 10744 10745 10746 10746 10747 10748 10748
10651 10652 10652 10652 10651 10651 10651 10651 10651 10652 10652 10653 10653 10653 10654 10655 10656 10657 10658 10660 10661 10663 10665 10667 10668 10669 10671 10673 10675 10677 10679 10681 10684 10687 10689 10691 10693 10695 10697 10699 10702 10704 10706 10707 10708 10710 10711 10712 10713 10714 10716 10718 10720 10721 10723 10725 10727 10729 10730 10731 10732 10733 10733 10733 10733 10734 10734 10735 10736 10737 10737 10738 10739 10739 10740 10740 10741 10743 10743 10744 10745 10745 10746 10747 10747
10653 10654 10654 10654 10654 10654 10654 10653 10653 10654 10654 10655 10655 10656 10656 10657 10658 10659 10660 10662 10663 10665 10666 10668 10669 10671 10673 10675 10676 10678 10679 10681 10684 10687 10689 10690 10692 10694 10696 10698 10701 10703 10704 10706 10707 10708 10710 10711 10713 10714 10715 10717 10719 10721 10723 10725 10726 10727 10728 10729 10730 10731 10731 10731 10732 10732 10732 10733 10734 10735 10736 10736 10737 10738 10738 10739 10740 10741 10742 10743 10744 10744 10745 10746 10746
10655 10655 10656 10656 10657 10657 10657 10656 10656 10656 10656 10656 10657 10658 10659 10659 10660 10661 10662 10664 10665 10667 10668 10670 10671 10672 10674 10676 10678 10679 10680 10682 10684 10687 10688 10690 10692 10694 10696 10698 10701 10702 10703 10705 10706 10707 10709 10710 10712 10713 10715 10716 10717 10719 10721 10723 10725 10725 10727 10728 10729 10729 10730 10730 10730 10730 10731 10731 10733 10734 10734 10735 10736 10736 10737 10738 10739 10740 10741 10742 10742 10743 10744 10745 10745
10657 10657 10657 10657 10658 10658 10659 10659 10658 10658 10658 10658 10659 10659 10660 10661 10662 10663 10664 10665 10667 10668 10670 10671 10673 10674 10676 10678 10679 10681 10682 10683 10685 10687 10689 10691 10693 10695 10697 10699 10701 10702 10704 10705 10705 10706 10708 10710 10711 10713 10714 10715 10717 10719 10721 10723 10724 10724 10726 10727 10728 10728 10728 10728 10729 10729 10729 10730 10731 10732 10733 10733 10734 10735 10735 10736 10738 10739 10740 10740 10741 10742 10743 10744 10744
10658 10658 10658 10658 10659 10659 10660 10660 10660 10660 10660 10660 10661 10661 10662 10662 10663 10664 10665 10667 10668 10669 10671 10672 10674 10676 10677 10679 10680 10682 10683 10684 10686 10688 10690 10691 10693 10695 10697 10699 10700 10702 10704 10704 10705 10706 10708 10709 10711 10712 10713 10715 10717 10718 10720 10722 10723 10724 10725 10726 10727 10727 10726 10727 10727 10728 10728 10729 10730 10731 10731 10732 10732 10733 10734 10735 10736 10737 10738 10739 10740 10741 10741 10742 10743
10659 10659 10659 10659 10659 10660 10660 10661 10661 10662 10662 10662 10662 10663 10663 10664 10665 10665 10666 10667 10669 10670 10672 10673 10675 10676 10678 10679 10681 10683 10684 10685 10687 10688 10690 10692 10694 10695 10696 10698 10699 10701 10703 10703 10704 10706 10708 10709 10710 10712 10713 10714 10716 10717 10719 10720 10722 10723 10724 10724 10725 10725 10724 10725 10726 10726 10727 10728 10728 10729 10730 10730 10731 10732 10733 10734 10735 10736 10737 10738 10738 10739 10740 10741 10741
10660 10660 10660 10660 10660 10660 10661 10661 10662 10662 10663 10663 10664 10664 10665 10665 10666 10667 10667 10668 10669 10671 10672 10673 10675 10676 10678 10679 10681 10683 10684 10686 10687 10689 10691 10692 10694 10695 10696 10697 10699 10700 10701 10702 10704 10705 10707 10708 10709 10710 10712 10713 10714 10715 10717 10718 10720 10721 10722 10722 10722 10723 10723 10724 10724 10725 10725 10726 10727 10728 10728 10729 10730 10731 10731 10732 10733 10734 10735 10736 10737 10738 10738 10739 10740
10663 10662 10662 10662 10662 10662 10662 10662 10662 10663 10663 10664 10665 10665 10666 10667 10667 10668 10669 10669 10670 10671 10673 10674 10675 10676 10677 10679 10681 10682 10684 10685 10687 10689 10690 10692 10693 10695 10696 10697 10699 10700 10701 10702 10703 10704 10705 10706 10708 10709 10710 10711 10712 10713 10715 10716 10718 10719 10719 10720 10721 10721 10722 10723 10723 10723 10724 10724 10725 10726 10727 10727 10728 10729 10729 10730 10731 10732 10733 10734 10735 10736 10737 10737 10738
10666 10665 10664 10664 10664 10664 10663 10663 10664 10664 10664 10665 10665 10666 10666 10667 10668 10669 10669 10670 10671 10672 10673 10674 10675 10676 10677 10679 10680 10682 10683 10684 10686 10687 10689 10690 10692 10693 10695 10696 10697 10698 10700 10701 10702 10703 10703 10704 10706 10707 10708 10709 10710 10711 10713 10714 10715 10716 10717 10718 10719 10719 10720 10721 10721 10722 10722 10723 10723 10724 10725 10726 10726 10727 10728 10728 10730 10731 10731 10732 10733 10734 10735 10735 10736
10669 10669 10668 10667 10666 10666 10666 10665 10665 10665 10665 10666 10666 10666 10667 10668 10668 10669 10670 10671 10671 10672 10673 10674 10675 10676 10677 10679 10680 10681 10682 10684 10685 10686 10688 10689 10690 10691 10693 10694 10695 10696 10698 10699 10700 10701 10702 10702 10703 10704 10705 10706 10707 10709 10710 10711 10713 10714 10715 10716 10716 10716 10717 10718 10718 10719 10720 10720 10721 10722 10723 10723 10724 10724 10725 10726 10728 10729 10729 10730 10731 10732 10732 10733 10734
10673 10672 10671 10671 10670 10669 10668 10668 10668 10667 10667 10667 10667 10667 10668 10668 10669 10669 10670 10671 10672 10673 10674 10675 10676 10677 10677 10678 10680 10681 10682 10683 10684 10685 10686 10688 10689 10690 10691 10692 10693 10694 10695 10697 10698 10699 10699 10700 10701 10702 10703 10704 10705 10706 10707 10708 10709 10710 10712 10713 10713 10714 10714 10715 10715 10716 10717 10718 10718 10719 10720 10721 10721 10722 10723 10724 10725 10726 10727 10728 10728 10729 10730 10731 10732
10677 10676 10675 10674 10673 10672 10672 10671 10670 10670 10669 10669 10669 10668 10668 10669 10669 10669 10670 10671 10672 10673 10674 10675 10676 10677 10678 10679 10679 10680 10681 10682 10683 10684 10685 10686 10688 10689 10689 10690 10691 10692 10693 10694 10695 10696 10696 10697 10698 10699 10700 10701 10702 10703 10704 10705 10706 10707 10708 10709 10710 10711 10711 10712 10713 10713 10714 10715 10715 10716 10717 10717 10718 10719 10720 10721 10722 10723 10724 10725 10725 10726 10727 10728 10729
10682 10680 10679 10678 10677 10676 10675 10674 10674 10673 10672 10672 10671 10671 10670 10670 10670 10670 10671 10671 10672 10672 10673 10674 10675 10676 10677 10678 10679 10680 10681 10682 10682 10683 10684 10685 10686 10687 10688 10689 10690 10690 10691 10692 10693 10693 10694 10694 10695 10696 10697 10698 10699 10700 10701 10702 10703 10704 10705 10706 10707 10707 10708 10709 10710 10710 10711 10712 10712 10713 10713 10714 10715 10716 10717 10718 10719 10720 10721 10722 10722 10723 10724 10725 10725
10686 10684 10683 10682 10681 10680 10679 10678 10677 10677 10676 10675 10674 10674 10673 10673 10672 10672 10672 10672 10672 10673 10673 10674 10674 10675 10676 10677 10678 10679 10680 10681 10682 10682 10683 10684 10684 10685 10686 10687 10687 10688 10689 10689 10690 10691 10691 10692 10692 10693 10694 10695 10696 10697 10698 10698 10699 10700 10701 10702 10703 10704 10704 10705 10706 10707 10707 10708 10709 10709 10710 10711 10712 10713 10713 10714 10715 10716 10717 10718 10719 10720 10720 10721 10722
10689 10688 10687 10686 10685 10684 10683 10682 10681 10680 10679 10679 10678 10677 10677 10676 10676 10675 10675 10675 10675 10674 10674 10675 10675 10675 10675 10676 10676 10677 10678 10679 10679 10680 10681 10682 10683 10683 10684 10684 10685 10685 10686 10686 10687 10688 10688 10689 10689 10690 10691 10691 10692 10693 10694 10694 10695 10696 10697 10698 10699 10700 10701 10702 10702 10703 10704 10705 10705 10706 10706 10707 10708 10709 10710 10711 10711 10713 10714 10714 10715 10716 10717 10718 10718
10692 10691 10690 10689 10688 10687 10686 10686 10685 10684 10683 10682 10681 10681 10680 10680 10679 10679 10678 10678 10678 10677 10677 10677 10677 10677 10676 10677 10677 10677 10677 10677 10678 10678 10679 10679 10680 10681 10681 10682 10682 10683 10683 10683 10684 10684 10685 10686 10686 10687 10687 10688 10688 10689 10690 10691 10691 10692 10692 10694 10695 10696 10697 10698 10699 10699 10700 10701 10702 10702 10703 10704 10705 10706 10707 10708 10708 10709 10710 10710 10711 10712 10713 10714 10715
10695 10694 10693 10692 10691 10690 10689 10688 10687 10687 10686 10685 10684 10684 10683 10683 10682 10682 10681 10681 10681 10680 10680 10680 10679 10679 10679 10678 10678 10678 10678 10678 10677 10677 10677 10677 10677 10678 10678 10679 10679 10679 10680 10680 10681 10681 10682 10682 10683 10683 10684 10684 10684 10685 10686 10687 10687 10688 10688 10689 10690 10691 10692 10693 10695 10696 10696 10696 10697 10698 10699 10700 10701 10702 10703 10704 10705 10705 10706 10707 10708 10708 10709 10710 10711
10697 10697 10696 10695 10694 10693 10692 10691 10690 10689 10688 10687 10687 10686 10686 10685 10685 10684 10684 10683 10683 10683 10682 10682 10682 10681 10681 10681 10680 10680 10679 10679 10678 10678 10677 10677 10677 10676 10676 10676 10676 10676 10676 10677 10677 10678 10678 10678 10679 10679 10680 10680 10680 10681 10682 10682 10683 10683 10684 10685 10685 10686 10687 10688 10689 10691 10692 10692 10692 10693 10695 10696 10697 10698 10700 10701 10701 10701 10702 10703 10704 10704 10705 10707 10708
10700 10699 10698 10697 10696 10695 10694 10693 10692 10692 10691 10690 10689 10688 10687 10687 10686 10686 10686 10685 10685 10685 10684 10684 10684 10683 10683 10682 10682 10681 10681 10680 10680 10679 10678 10677 10677 10676 10675 10675 10674 10674 10673 10673 10673 10673 10673 10674 10674 10674 10675 10675 10676 10677 10677 10678 10678 10679 10679 10680 10681 10681 10682 10683 10684 10685 10686 10687 10687 10688 10690 10691 10693 10694 10695 10697 10698 10698 10698 10699 10700 10700 10701 10702 10703
10701 10700 10700 10699 10698 10697 10696 10696 10695 10694 10693 10692 10691 10690 10689 10688 10688 10687 10687 10686 10686 10686 10685 10685 10685 10684 10684 10683 10682 10682 10681 10681 10680 10679 10678 10677 10676 10676 10675 10674 10673 10672 10672 10671 10670 10670 10669 10669 10669 10669 10669 10669 10670 10671 10672 10672 10673 10674 10674 10675 10675 10676 10676 10677 10678 10679 10680 10681 10682 10683 10684 10685 10687 10689 10690 10692 10693 10693 10694 10695 10695 10696 10697 10698 10698
10703 10702 10701 10700 10699 10699 10698 10697 10696 10695 10694 10694 10693 10692 10691 10690 10689 10688 10688 10687 10687 10686 10686 10685 10685 10684 10683 10683 10682 10681 10681 10680 10679 10679 10678 10677 10676 10675 10674 10673 10672 10671 10671 10670 10669 10668 10667 10666 10666 10665 10664 10664 10664 10665 10665 10666 10667 10667 10668 10669 10670 10670 10670 10671 10672 10673 10674 10675 10676 10677 10679 10680 10681 10683 10684 10686 10687 10688 10690 10691 10691 10691 10691 10693 10694
10705 10703 10703 10702 10701 10700 10699 10698 10697 10696 10696 10695 10694 10693 10692 10691 10690 10689 10688 10687 10687 10686 10685 10685 10684 10683 10682 10682 10681 10680 10679 10679 10678 10677 10677 10676 10675 10674 10673 10672 10671 10670 10669 10668 10667 10666 10665 10665 10664 10663 10661 10660 10660 10659 10660 10660 10660 10661 10661 10662 10663 10664 10664 10664 10665 10666 10667 10668 10670 10671 10673 10674 10676 10677 10678 10679 10681 10683 10685 10686 10686 10686 10686 10687 10689
10706 10705 10704 10703 10702 10701 10700 10699 10698 10697 10697 10696 10695 10694 10693 10692 10691 10690 10689 10688 10687 10686 10685 10684 10683 10682 10681 10680 10679 10679 10678 10677 10676 10675 10674 10674 10673 10672 10671 10670 10669 10668 10667 10667 10666 10665 10664 10663 10662 10660 10659 10658 10657 10656 10655 10654 10654 10654 10654 10655 10655 10656 10657 10658 10658 10659 10660 10661 10663 10664 10665 10667 10670 10672 10673 10674 10675 10678 10679 10679 10680 10681 10682 10683 10684
10706 10705 10704 10704 10703 10702 10701 10700 10699 10698 10697 10696 10696 10695 10694 10693 10691 10690 10689 10688 10687 10686 10684 10683 10682 10681 10680 10679 10678 10677 10676 10675 10674 10673 10672 10671 10670 10669 10668 10667 10667 10666 10665 10664 10663 10662 10661 10660 10659 10658 10657 10656 10654 10653 10652 10651 10649 10648 10648 10647 10648 10648 10649 10650 10651 10652 10653 10654 10656 10657 10658 10660 10662 10665 10667 10669 10670 10671 10671 10672 10675 10676 10678 10680 10679
10707 10706 10705 10704 10703 10702 10701 10700 10699 10698 10697 10696 10696 10695 10694 10693 10692 10690 10689 10688 10687 10685 10684 10683 10681 10680 10679 10678 10677 10676 10674 10673 10672 10671 10669 10668 10667 10666 10665 10664 10663 10662 10661 10660 10659 10658 10658 10657 10656 10655 10654 10653 10652 10650 10648 10647 10646 10644 10643 10642 10641 10641 10641 10641 10642 10644 10645 10646 10648 10649 10651 10652 10654 10656 10659 10662 10664 10665 10665 10667 10669 10669 10672 10675 10674
10707 10706 10705 10704 10703 10702 10701 10700 10699 10698 10697 10696 10695 10694 10693 10692 10691 10690 10689 10688 10686 10685 10684 10682 10681 10679 10678 10677 10676 10675 10673 10671 10670 10669 10667 10666 10665 10663 10662 10661 10660 10659 10658 10657 10656 10655 10654 10653 10652 10650 10650 10649 10648 10647 10645 10643 10642 10640 10639 10637 10636 10635 10634 10634 10634 10635 10636 10637 10639 10641 10642 10644 10646 10648 10650 10652 10656 10658 10659 10661 10662 10662 10665 10668 10668
10707 10706 10705 10704 10703 10702 10701 10700 10699 10697 10696 10695 10694 10693 10692 10691 10690 10689 10688 10687 10686 10684 10683 10682 10680 10679 10677 10675 10674 10673 10671 10670 10668 10666 10665 10664 10662 10661 10659 10658 10656 10655 10654 10653 10652 10651 10649 10648 10647 10646 10645 10644 10643 10642 10641 10640 10638 10636 10635 10633 10631 10630 10629 10628 10627 10627 10627 10628 10630 10631 10633 10635 10637 10639 10641 10643 10645 10649 10652 10654 10655 10655 10658 10660 10660
10706 10705 10704 10703 10702 10701 10700 10699 10698 10697 10695 10694 10693 10692 10691 10690 10689 10688 10687 10686 10684 10683 10682 10681 10679 10678 10676 10674 10672 10671 10669 10668 10666 10664 10663 10661 10660 10658 10656 10655 10653 10651 10650 10648 10647 10647 10646 10644 10642 10641 10640 10639 10638 10637 10635 10634 10633 10632 10630 10629 10627 10625 10623 10622 10621 10620 10619 10620 10620 10621 10623 10625 10627 10629 10632 10634 10635 10639 10643 10646 10648 10649 10651 10652 10653
10705 10704 10703 10702 10701 10700 10698 10697 10696 10694 10693 10692 10691 10690 10689 10688 10687 10686 10685 10684 10682 10681 10680 10678 10677 10676 10674 10672 10670 10669 10667 10666 10664 10662 10660 10658 10657 10655 10653 10651 10650 10647 10645 10643 10641 10640 10641 10640 10638 10636 10634 10633 10632 10631 10630 10628 10627 10625 10624 10623 10622 10620 10618 10617 10615 10614 10613 10612 10612 10613 10613 10614 10616 10618 10621 10624 10626 10628 10632 10636 10639 10641 10643 10644 10646
10704 10703 10701 10700 10699 10698 10696 10695 10694 10692 10691 10689 10688 10687 10686 10685 10685 10684 10682 10681 10680 10679 10677 10676 10674 10673 10671 10670 10668 10666 10664 10663 10661 10659 10657 10655 10654 10652 10650 10648 10646 10644 10642 10639 10636 10633 10633 10634 10633 10631 10629 10627 10625 10624 10623 10622 10621 10619 10617 10616 10615 10614 10612 10611 10610 10608 10607 10606 10605 10605 10605 10605 10605 10607 10610 10613 10615 10618 10621 10625 10629 10632 10634 10636 10639
10702 10701 10700 10698 10697 10696 10695 10693 10692 10691 10689 10688 10687 10686 10685 10684 10683 10682 10681 10679 10678 10677 10675 10674 10672 10670 10669 10667 10665 10663 10661 10659 10658 10656 10654 10652 10651 10649 10647 10645 10643 10641 10638 10636 10633 10629 10626 10625 10626 10625 10623 10621 10619 10617 10615 10614 10612 10612 10610 10608 10607 10606 10605 10603 10602 10601 10600 10599 10598 10597 10597 10597 10596 10597 10599 10601 10604 10607 10610 10614 10618 10622 10624 10626 10629
10700 10699 10698 10697 10695 10694 10693 10691 10690 10689 10688 10687 10685 10684 10683 10682 10681 10680 10678 10677 10675 10674 10672 10671 10669 10667 10665 10663 10662 10660 10658 10656 10654 10652 10650 10649 10647 10646 10644 10642 10640 10638 10636 10633 10630 10627 10622 10618 10617 10617 10615 10613 10611 10609 10607 10606 10604 10602 10601 10600 10599 10597 10596 10595 10594 10593 10592 10591 10591 10590 10589 10589 10589 10589 10589 10591 10594 10597 10599 10603 10607 10611 10614 10617 10619
10698 10697 10696 10694 10693 10692 10691 10689 10688 10686 10685 10684 10683 10681 10680 10679 10678 10676 10675 10674 10672 10670 10668 10667 10665 10663 10661 10659 10657 10655 10654 10652 10650 10648 10646 10644 10642 10641 10639 10637 10635 10633 10631 10629 10626 10623 10619 10614 10611 10609 10608 10606 10604 10600 10598 10597 10595 10593 10590 10589 10588 10587 10586 10585 10584 10583 10583 10582 10582 10581 10581 10581 10581 10581 10581 10582 10584 10586 10589 10592 10595 10599 10603 10606 10609
10695 10694 10693 10692 10691 10690 10688 10687 10685 10683 10682 10681 10679 10678 10677 10675 10674 10672 10671 10670 10668 10666 10664 10662 10660 10658 10656 10654 10652 10650 10648 10647 10645 10643 10641 10638 10636 10634 10632 10630 10628 10626 10624 10622 10620 10616 10613 10610 10605 10602 10600 10598 10596 10592 10589 10587 10586 10584 10581 10579 10576 10575 10575 10574 10573 10572 10573 10573 10572 10571 10572 10572 10572 10572 10572 10574 10575 10576 10579 10581 10585 10588 10591 10595 10598
10692 10691 10690 10689 10688 10686 10685 10683 10682 10680 10679 10677 10676 10675 10673 10672 10670 10668 10667 10665 10664 10662 10660 10658 10656 10654 10652 10649 10647 10645 10643 10641 10640 10638 10635 10633 10631 10628 10626 10623 10621 10619 10616 10614 10612 10609 10606 10602 10599 10594 10591 10589 10587 10584 10580 10577 10575 10572 10571 10569 10566 10563 10562 10561 10561 10560 10562 10563 10562 10561 10561 10562 10563 10562 10563 10564 10565 10567 10568 10570 10574 10577 10580 10583 10587
10688 10687 10686 10685 10684 10683 10681 10679 10678 10676 10675 10674 10672 10671 10669 10668 10666 10664 10662 10660 10659 10657 10655 10653 10651 10649 10647 10645 10643 10640 10638 10636 10634 10632 10630 10627 10625 10622 10619 10617 10614 10612 10609 10606 10604 10601 10598 10594 10591 10587 10582 10578 10576 10573 10570 10567 10564 10560 10558 10556 10555 10553 10550 10548 10547 10547 10549 10551 10551 10550 10550 10552 10553 10553 10553 10553 10555 10557 10558 10560 10562 10565 10569 10572 10575
10685 10684 10683 10682 10680 10679 10677 10676 10674 10673 10672 10670 10669 10667 10666 10664 10662 10660 10658 10656 10654 10652 10650 10648 10646 10644 10642 10640 10637 10635 10633 10631 10628 10626 10624 10621 10619 10616 10612 10609 10606 10603 10600 10597 10594 10591 10587 10584 10581 10577 10573 10568 10565 10561 10558 10555 10551 10548 10545 10542 10540 10540 10539 10537 10535 10533 10534 10537 10539 10539 10539 10540 10541 10542 10542 10543 10544 10546 10548 10550 10552 10554 10557 10560 10563
10681 10680 10679 10678 10677 10675 10674 10672 10671 10670 10668 10666 10665 10663 10661 10660 10658 10656 10654 10652 10649 10647 10645 10643 10641 10639 10636 10634 10632 10630 10627 10625 10622 10620 10617 10614 10612 10609 10605 10602 10598 10595 10591 10587 10584 10580 10576 10573 10569 10566 10562 10557 10553 10549 10545 10542 10539 10535 10532 10528 10526 10524 10524 10523 10522 10520 10520 10522 10525 10526 10527 10528 10530 10531 10531 10532 10533 10534 10537 10539 10541 10543 10546 10549 10552
10678 10677 10676 10674 10673 10671 10669 10668 10667 10665 10664 10662 10660 10658 10656 10654 10652 10650 10649 10646 10644 10642 10640 10638 10636 10633 10631 10629 10626 10624 10621 10619 10616 10614 10611 10607 10604 10601 10597 10594 10590 10587 10582 10578 10575 10570 10566 10562 10558 10554 10550 10545 10540 10536 10532 10528 10525 10522 10518 10515 10513 10511 10509 10508 10507 10507 10507 10508 10509 10511 10513 10515 10517 10518 10519 10521 10521 10522 10525 10528 10530 10532 10534 10537 10541
10674 10673 10672 10670 10669 10667 10665 10663 10662 10660 10659 10657 10655 10653 10651 10649 10647 10645 10643 10641 10639 10637 10634 10632 10630 10628 10625 10623 10620 10618 10615 10613 10611 10608 10605 10601 10598 10594 10590 10587 10583 10578 10574 10569 10565 10561 10556 10551 10546 10542 10537 10532 10527 10522 10518 10514 10510 10507 10504 10501 10499 10496 10495 10493 10491 10490 10493 10494 10494 10496 10498 10500 10502 10504 10506 10508 10509 10511 10514 10517 10517 10520 10523 10526 10530
10670 10669 10668 10666 10664 10662 10660 10659 10657 10655 10654 10652 10650 10648 10646 10643 10641 10639 10637 10635 10633 10631 10629 10627 10624 10622 10619 10616 10614 10611 10608 10606 10604 10601 10599 10595 10592 10588 10584 10580 10576 10571 10567 10561 10556 10551 10546 10541 10535 10529 10524 10519 10513 10508 10503 10499 10495 10492 10489 10486 10484 10482 10480 10479 10476 10475 10476 10479 10480 10481 10482 10483 10487 10491 10493 10495 10498 10500 10502 10504 10505 10508 10512 10515 10518
10666 10665 10663 10662 10660 10658 10656 10654 10653 10651 10649 10648 10646 10644 10641 10639 10637 10635 10633 10630 10628 10626 10623 10621 10618 10615 10613 10610 10607 10604 10601 10598 10595 10592 10589 10586 10584 10580 10577 10573 10568 10563 10558 10553 10548 10542 10536 10530 10523 10517 10511 10506 10500 10494 10489 10484 10479 10476 10473 10470 10468 10467 10465 10463 10461 10460 10461 10463 10464 10467 10467 10466 10471 10477 10479 10481 10484 10487 10489 10491 10493 10496 10499 10503 10506
10661 10660 10659 10657 10655 10653 10651 10650 10648 10647 10646 10644 10642 10639 10637 10635 10633 10631 10628 10625 10623 10620 10617 10614 10611 10608 10605 10602 10599 10596 10592 10589 10586 10582 10579 10576 10573 10570 10566 10563 10559 10554 10549 10543 10537 10531 10525 10518 10512 10505 10498 10492 10486 10480 10474 10468 10463 10460 10457 10455 10452 10451 10449 10448 10448 10446 10446 10447 10448 10451 10452 10450 10454 10461 10464 10465 10469 10473 10477 10478 10480 10483 10488 10492 10495
10657 10655 10654 10653 10651 10649 10647 10645 10644 10643 10641 10639 10637 10635 10632 10630 10628 10626 10623 10620 10617 10613 10610 10607 10604 10601 10598 10594 10591 10587 10584 10581 10577 10573 10570 10566 10562 10558 10554 10550 10546 10542 10538 10532 10526 10519 10512 10505 10499 10492 10485 10479 10473 10466 10460 10454 10449 10445 10442 10440 10437 10435 10434 10434 10434 10432 10431 10432 10433 10435 10436 10436 10438 10445 10448 10449 10454 10460 10464 10465 10466 10471 10477 10480 10484
10652 10651 10649 10648 10646 10644 10643 10641 10640 10638 10636 10634 10632 10629 10627 10625 10623 10620 10617 10614 10610 10607 10603 10600 10597 10593 10590 10586 10583 10579 10576 10572 10569 10565 10561 10556 10552 10547 10542 10537 10532 10527 10523 10517 10512 10506 10499 10491 10484 10478 10471 10465 10459 10453 10446 10440 10435 10431 10428 10425 10423 10421 10419 10419 10420 10419 10418 10418 10419 10420 10421 10420 10423 10428 10431 10434 10440 10446 10449 10451 10453 10458 10464 10468 10471
10647 10645 10644 10643 10641 10639 10638 10636 10634 10633 10631 10629 10626 10623 10620 10618 10616 10614 10611 10607 10604 10600 10597 10593 10589 10585 10582 10578 10575 10571 10568 10564 10560 10556 10552 10547 10542 10537 10531 10525 10520 10514 10508 10502 10496 10490 10483 10476 10470 10463 10457 10451 10445 10439 10433 10427 10422 10417 10414 10412 10410 10408 10406 10405 10405 10406 10405 10405 10406 10406 10406 10407 10409 10415 10419 10422 10427 10432 10434 10438 10441 10445 10451 10456 10459
10641 10640 10638 10636 10635 10633 10631 10630 10628 10627 10625 10622 10620 10616 10613 10611 10609 10607 10604 10600 10597 10593 10590 10586 10582 10578 10574 10570 10567 10563 10559 10556 10551 10547 10543 10537 10532 10526 10520 10515 10508 10502 10495 10488 10481 10474 10468 10461 10455 10449 10442 10437 10431 10426 10420 10414 10409 10405 10401 10398 10397 10395 10394 10392 10392 10392 10392 10393 10393 10392 10394 10397 10398 10402 10407 10410 10414 10417 10420 10424 10429 10432 10437 10442 10447
10636 10634 10632 10630 10628 10626 10624 10623 10621 10619 10617 10615 10612 10609 10606 10603 10601 10598 10596 10593 10590 10586 10583 10579 10575 10570 10566 10562 10559 10555 10551 10547 10543 10538 10533 10527 10522 10516 10510 10503 10497 10490 10483 10475 10466 10458 10451 10445 10439 10433 10427 10422 10417 10413 10408 10402 10397 10393 10389 10386 10383 10382 10381 10380 10380 10379 10379 10381 10382 10381 10383 10386 10386 10388 10393 10396 10399 10402 10406 10411 10416 10420 10424 10430 10435
10630 10627 10626 10625 10623 10620 10618 10615 10613 10611 10608 10606 10603 10600 10598 10595 10592 10590 10587 10585 10582 10579 10575 10572 10568 10563 10559 10554 10551 10547 10542 10538 10533 10528 10522 10517 10511 10505 10498 10492 10484 10477 10470 10462 10453 10445 10437 10430 10423 10417 10411 10406 10402 10399 10396 10392 10387 10382 10379 10375 10372 10369 10368 10368 10368 10368 10366 10367 10370 10371 10372 10373 10374 10376 10380 10383 10387 10390 10393 10398 10404 10408 10412 10418 10423